NOAA 16 DEB

Satellite information

Favourite Embed

Satellite Type and Status

DEBRISIN ORBIT

Key statistics

Satellite NOAA 16 DEB at a glance.

Uptime

8993

Days in orbit

Revolutions

≈ 14.2

Per day

Orbit

SSO

Sun Synchronous Orbit

Inclination

98.9

Latest

Satellite identification and parameters

Extended collection of information and parameters for NOAA 16 DEB.

Object identification

Identified? True

Debris? True

Object name: NOAA 16 DEB

International designator: 2000-055FC

Object number (NORAD): 41252

Object ID (CCSDS): 41252

Country: UNITED STATES OF AMERICA (US)

Current information (Y/N): Y

RCS size: SMALL

Orbital parameters

Period: 101.674 minutes

Inclination: 98.9296 deg

SMA: 7216.045 km

Apoapsis: 876.0 km

Periapsis: 799.819 km

RAAN: 184.5042 deg

Eccentricy: 0.0052786

Argument of periapsis: 72.8396 deg

Mean anomaly: 287.8548 deg

Mean motion: 14.16295747 rev/day

Mean motion (dot): 0.0000647 rev/day2

B* drag term: 0.0032381 1/REarth

Two-line elements (TLE)

Creation date: May 5, 2025, 6:26 a.m.

Reference frame: TEME

Reference center: EARTH

Epoch: May 4, 2025, 10:48 p.m. UTC

TLE line 0: 0 NOAA 16 DEB

TLE line 1: 1 41252U 00055FC 25124.95037393 .00006470 00000-0 32381-2 0 9993

TLE line 2: 2 41252 98.9296 184.5042 0052786 72.8396 287.8548 14.16295747481928

Live tracking on map

Real-time ground track for satellite NOAA 16 DEB.

In-orbit conjunctions

A list of the most updated potential collisions computed for object NOAA 16 DEB.

Target Orbit TCA Probability of collision Miss distance Type
METEOR 1-17 LEO 2025-04-19 11:03:26 0.0004959001 52.0 (m) PAYLOAD

Associated space launch

The NOAA K, L and M POES satellites begin the fifth generation of improved environmental monitoring in support of NOAA missions. The instrument payload has significant improvements and additions/deletions. The instrument changes have effected the spacecraft subsystems and data formats.

NOAA 16 DEB was lifted into orbit during the mission ‘Titan II SLV | NOAA 16’, on board a Titan II SLV space rocket.

The launch took place on Sept. 21, 2000, 10:22 a.m. from Space Launch Complex 4W.

For more information about the launch, click the button.

Launch to space Titan II SLV | NOAA 16
Titan II SLV | NOAA 16

Agency: N/A

Status: Launch Successful

Launch date: Sept. 21, 2000, 10:22 a.m. UTC

Rocket: Titan II SLV

Launch pad: Space Launch Complex 4W

Location: Vandenberg SFB, CA, USA

...

Latest news about this satellite

There are no fresh news available about this satellite. Check back as we update our databases every day.


Newsletter sign-up

Weekly statistics, charts and insights to help you stay on top of the space industry.